This is the latest recevied weather packets stored in our database for station/object VE7PRT-1. If no packets are shown the sender has not sent any weather packets the latest 10 day(s).
| Time | Temp. | Humidity | Pressure | Rain* | Wind** | Luminosity | Snow |
|---|---|---|---|---|---|---|---|
| 1777503562 | 16.11° C | 82% | 1025.3 hPa | 0 mm | - | - | - |
| 1777502794 | 16.11° C | 82% | 1025.5 hPa | 0 mm | - | - | - |
| 1777501947 | 16.11° C | 83% | 1025.5 hPa | 0 mm | - | - | - |
| 1777501119 | 16.11° C | 83% | 1025.8 hPa | 0 mm | - | - | - |
| 1777500239 | 16.11° C | 84% | 1025.8 hPa | 0 mm | - | - | - |
| 1777499414 | 15° C | 85% | 1025.9 hPa | 0 mm | - | - | - |
| 1777498586 | 15° C | 87% | 1026 hPa | 0 mm | - | - | - |
| 1777497734 | 14.44° C | 87% | 1026 hPa | 0 mm | - | - | - |
| 1777496974 | 13.89° C | 88% | 1026.1 hPa | 0 mm | - | - | - |
| 1777496209 | 13.89° C | 88% | 1026.1 hPa | 0 mm | - | - | - |
| 1777495429 | 13.89° C | 88% | 1026.2 hPa | 0 mm | - | - | - |
| 1777494549 | 13.89° C | 88% | 1026.2 hPa | 0 mm | - | - | - |
| 1777493723 | 13.89° C | 88% | 1026.3 hPa | 0 mm | - | - | - |
| 1777492914 | 13.89° C | 88% | 1026.3 hPa | 0 mm | - | - | - |
| 1777492119 | 13.89° C | 88% | 1026.3 hPa | 0 mm | - | - | - |
| 1777491314 | 13.89° C | 87% | 1026.3 hPa | 0 mm | - | - | - |
| 1777490507 | 13.33° C | 87% | 1026.3 hPa | 0 mm | - | - | - |
| 1777489739 | 12.78° C | 87% | 1026.3 hPa | 0 mm | - | - | - |
| 1777488956 | 12.78° C | 88% | 1026.4 hPa | 0 mm | - | - | - |
| 1777488094 | 12.78° C | 89% | 1026.3 hPa | 0 mm | - | - | - |
| 1777487259 | 12.78° C | 90% | 1026.3 hPa | 0 mm | - | - | - |
| 1777486397 | 12.22° C | 90% | 1026.3 hPa | 0 mm | - | - | - |
| 1777485537 | 12.22° C | 91% | 1026.4 hPa | 0 mm | - | - | - |
| 1777484659 | 12.22° C | 92% | 1026.4 hPa | 0 mm | - | - | - |
| 1777483794 | 12.22° C | 92% | 1026.4 hPa | 0 mm | - | - | - |
* Rain latest hour (hover to see other rain measurements)
** Current wind speed in m/s (hover to see current wind gust speed)